Year,Month,Day,Hour,Minute,Value (Times are PST for temperature in C)
2015,09,28,00,00,9.60
2015,09,28,00,01,9.60
2015,09,28,00,02,9.60
2015,09,28,00,03,9.60
2015,09,28,00,04,9.60
2015,09,28,00,05,9.60
2015,09,28,00,06,9.60
2015,09,28,00,07,9.60
2015,09,28,00,08,9.60
2015,09,28,00,09,9.60
2015,09,28,00,10,9.60
2015,09,28,00,11,9.60
2015,09,28,00,12,9.60
2015,09,28,00,13,9.60
2015,09,28,00,14,9.50
2015,09,28,00,15,9.50
2015,09,28,00,16,9.50
2015,09,28,00,17,9.50
2015,09,28,00,18,9.50
2015,09,28,00,19,9.50
2015,09,28,00,20,9.50
2015,09,28,00,21,9.50
2015,09,28,00,22,9.40
2015,09,28,00,23,9.40
2015,09,28,00,24,9.40
2015,09,28,00,25,9.30
2015,09,28,00,26,9.30
2015,09,28,00,27,9.30
2015,09,28,00,28,9.30
2015,09,28,00,29,9.30
2015,09,28,00,30,9.20
2015,09,28,00,31,9.20
2015,09,28,00,32,9.20
2015,09,28,00,33,9.20
2015,09,28,00,34,9.20
2015,09,28,00,35,9.20
2015,09,28,00,36,9.20
2015,09,28,00,37,9.20
2015,09,28,00,38,9.20
2015,09,28,00,39,9.20
2015,09,28,00,40,9.20
2015,09,28,00,41,9.20
2015,09,28,00,42,9.20
2015,09,28,00,43,9.20
2015,09,28,00,44,9.20
2015,09,28,00,45,9.20
2015,09,28,00,46,9.20
2015,09,28,00,47,9.20
2015,09,28,00,48,9.10
2015,09,28,00,49,9.10
2015,09,28,00,50,9.10
2015,09,28,00,51,9.10
2015,09,28,00,52,9.10
2015,09,28,00,53,9.10
2015,09,28,00,54,9.00
2015,09,28,00,55,9.00
2015,09,28,00,56,9.00
2015,09,28,00,57,9.00
2015,09,28,00,58,9.00
2015,09,28,00,59,9.00
2015,09,28,01,00,8.90
2015,09,28,01,01,8.90
2015,09,28,01,02,8.90
2015,09,28,01,03,8.90
2015,09,28,01,04,8.90
2015,09,28,01,05,8.80
2015,09,28,01,06,8.80
2015,09,28,01,07,8.80
2015,09,28,01,08,8.80
2015,09,28,01,09,8.70
2015,09,28,01,10,8.70
2015,09,28,01,11,8.70
2015,09,28,01,12,8.70
2015,09,28,01,13,8.70
2015,09,28,01,14,8.70
2015,09,28,01,15,8.70
2015,09,28,01,16,8.70
2015,09,28,01,17,8.70
2015,09,28,01,18,8.70
2015,09,28,01,19,8.70
2015,09,28,01,20,8.70
2015,09,28,01,21,8.70
2015,09,28,01,22,8.70
2015,09,28,01,23,8.70
2015,09,28,01,24,8.70
2015,09,28,01,25,8.70
2015,09,28,01,26,8.70
2015,09,28,01,27,8.70
2015,09,28,01,28,8.70
2015,09,28,01,29,8.70
2015,09,28,01,30,8.70
2015,09,28,01,31,8.70
2015,09,28,01,32,8.70
2015,09,28,01,33,8.80
2015,09,28,01,34,8.80
2015,09,28,01,35,8.80
2015,09,28,01,36,8.90
2015,09,28,01,37,8.90
2015,09,28,01,38,8.90
2015,09,28,01,39,8.90
2015,09,28,01,40,9.00
2015,09,28,01,41,9.00
2015,09,28,01,42,9.00
2015,09,28,01,43,9.10
2015,09,28,01,44,9.10
2015,09,28,01,45,9.10
2015,09,28,01,46,9.10
2015,09,28,01,47,9.10
2015,09,28,01,48,9.10
2015,09,28,01,49,9.10
2015,09,28,01,50,9.10
2015,09,28,01,51,9.10
2015,09,28,01,52,9.10
2015,09,28,01,53,9.10
2015,09,28,01,54,9.10
2015,09,28,01,55,9.00
2015,09,28,01,56,9.00
2015,09,28,01,57,9.00
2015,09,28,01,58,9.00
2015,09,28,01,59,9.00
2015,09,28,02,00,9.00
2015,09,28,02,01,9.00
2015,09,28,02,02,9.00
2015,09,28,02,03,9.00
2015,09,28,02,04,9.00
2015,09,28,02,05,9.10
2015,09,28,02,06,9.10
2015,09,28,02,07,9.20
2015,09,28,02,08,9.20
2015,09,28,02,09,9.20
2015,09,28,02,10,9.20
2015,09,28,02,11,9.30
2015,09,28,02,12,9.30
2015,09,28,02,13,9.40
2015,09,28,02,14,9.40
2015,09,28,02,15,9.50
2015,09,28,02,16,9.50
2015,09,28,02,17,9.50
2015,09,28,02,18,9.50
2015,09,28,02,19,9.60
2015,09,28,02,20,9.60
2015,09,28,02,21,9.60
2015,09,28,02,22,9.70
2015,09,28,02,23,9.70
2015,09,28,02,24,9.70
2015,09,28,02,25,9.70
2015,09,28,02,26,9.70
2015,09,28,02,27,9.80
2015,09,28,02,28,9.80
2015,09,28,02,29,9.90
2015,09,28,02,30,9.90
2015,09,28,02,31,10.00
2015,09,28,02,32,10.10
2015,09,28,02,33,10.10
2015,09,28,02,34,10.10
2015,09,28,02,35,10.20
2015,09,28,02,36,10.20
2015,09,28,02,37,10.30
2015,09,28,02,38,10.30
2015,09,28,02,39,10.40
2015,09,28,02,40,10.40
2015,09,28,02,41,10.40
2015,09,28,02,42,10.40
2015,09,28,02,43,10.40
2015,09,28,02,44,10.40
2015,09,28,02,45,10.40
2015,09,28,02,46,10.40
2015,09,28,02,47,10.40
2015,09,28,02,48,10.40
2015,09,28,02,49,10.40
2015,09,28,02,50,10.40
2015,09,28,02,51,10.40
2015,09,28,02,52,10.40
2015,09,28,02,53,10.40
2015,09,28,02,54,10.40
2015,09,28,02,55,10.40
2015,09,28,02,56,10.40
2015,09,28,02,57,10.40
2015,09,28,02,58,10.40
2015,09,28,02,59,10.40
2015,09,28,03,00,10.40
2015,09,28,03,01,10.40
2015,09,28,03,02,10.40
2015,09,28,03,03,10.40
2015,09,28,03,04,10.40
2015,09,28,03,05,10.40
2015,09,28,03,06,10.40
2015,09,28,03,07,10.40
2015,09,28,03,08,10.40
2015,09,28,03,09,10.40
2015,09,28,03,10,10.40
2015,09,28,03,11,10.40
2015,09,28,03,12,10.40
2015,09,28,03,13,10.40
2015,09,28,03,14,10.50
2015,09,28,03,15,10.60
2015,09,28,03,16,10.60
2015,09,28,03,17,10.60
2015,09,28,03,18,10.60
2015,09,28,03,19,10.70
2015,09,28,03,20,10.70
2015,09,28,03,21,10.70
2015,09,28,03,22,10.70
2015,09,28,03,23,10.80
2015,09,28,03,24,10.80
2015,09,28,03,25,10.80
2015,09,28,03,26,10.80
2015,09,28,03,27,10.80
2015,09,28,03,28,10.80
2015,09,28,03,29,10.70
2015,09,28,03,30,10.70
2015,09,28,03,31,10.70
2015,09,28,03,32,10.70
2015,09,28,03,33,10.70
2015,09,28,03,34,10.80
2015,09,28,03,35,10.80
2015,09,28,03,36,10.80
2015,09,28,03,37,10.80
2015,09,28,03,38,10.80
2015,09,28,03,39,10.80
2015,09,28,03,40,10.70
2015,09,28,03,41,10.80
2015,09,28,03,42,10.80
2015,09,28,03,43,10.80
2015,09,28,03,44,10.80
2015,09,28,03,45,10.80
2015,09,28,03,46,10.80
2015,09,28,03,47,10.80
2015,09,28,03,48,10.80
2015,09,28,03,49,10.80
2015,09,28,03,50,10.70
2015,09,28,03,51,10.70
2015,09,28,03,52,10.70
2015,09,28,03,53,10.70
2015,09,28,03,54,10.70
2015,09,28,03,55,10.70
2015,09,28,03,56,10.70
2015,09,28,03,57,10.70
2015,09,28,03,58,10.70
2015,09,28,03,59,10.70
2015,09,28,04,00,10.70
2015,09,28,04,01,10.70
2015,09,28,04,02,10.70
2015,09,28,04,03,10.70
2015,09,28,04,04,10.70
2015,09,28,04,05,10.70
2015,09,28,04,06,10.70
2015,09,28,04,07,10.70
2015,09,28,04,08,10.70
2015,09,28,04,09,10.70
2015,09,28,04,10,10.70
2015,09,28,04,11,10.70
2015,09,28,04,12,10.80
2015,09,28,04,13,10.80
2015,09,28,04,14,10.80
2015,09,28,04,15,10.90
2015,09,28,04,16,10.90
2015,09,28,04,17,10.90
2015,09,28,04,18,10.90
2015,09,28,04,19,10.90
2015,09,28,04,20,10.90
2015,09,28,04,21,10.90
2015,09,28,04,22,10.90
2015,09,28,04,23,10.90
2015,09,28,04,24,10.90
2015,09,28,04,25,10.90
2015,09,28,04,26,10.90
2015,09,28,04,27,10.90
2015,09,28,04,28,10.90
2015,09,28,04,29,10.90
2015,09,28,04,30,10.90
2015,09,28,04,31,10.90
2015,09,28,04,32,10.90
2015,09,28,04,33,10.90
2015,09,28,04,34,10.80
2015,09,28,04,35,10.80
2015,09,28,04,36,10.80
2015,09,28,04,37,10.80
2015,09,28,04,38,10.80
2015,09,28,04,39,10.80
2015,09,28,04,40,10.80
2015,09,28,04,41,10.80
2015,09,28,04,42,10.80
2015,09,28,04,43,10.80
2015,09,28,04,44,10.80
2015,09,28,04,45,10.80
2015,09,28,04,46,10.80
2015,09,28,04,47,10.90
2015,09,28,04,48,10.90
2015,09,28,04,49,10.90
2015,09,28,04,50,10.90
2015,09,28,04,51,10.90
2015,09,28,04,52,10.90
2015,09,28,04,53,10.90
2015,09,28,04,54,10.90
2015,09,28,04,55,10.90
2015,09,28,04,56,10.90
2015,09,28,04,57,10.90
2015,09,28,04,58,10.90
2015,09,28,04,59,10.90
2015,09,28,05,00,10.90
2015,09,28,05,01,10.90
2015,09,28,05,02,10.90
2015,09,28,05,03,10.90
2015,09,28,05,04,10.90
2015,09,28,05,05,10.90
2015,09,28,05,06,10.90
2015,09,28,05,07,10.90
2015,09,28,05,08,10.90
2015,09,28,05,09,10.90
2015,09,28,05,10,10.90
2015,09,28,05,11,10.90
2015,09,28,05,12,10.80
2015,09,28,05,13,10.80
2015,09,28,05,14,10.80
2015,09,28,05,15,10.80
2015,09,28,05,16,10.80
2015,09,28,05,17,10.80
2015,09,28,05,18,10.80
2015,09,28,05,19,10.80
2015,09,28,05,20,10.80
2015,09,28,05,21,10.80
2015,09,28,05,22,10.70
2015,09,28,05,23,10.70
2015,09,28,05,24,10.70
2015,09,28,05,25,10.70
2015,09,28,05,26,10.70
2015,09,28,05,27,10.70
2015,09,28,05,28,10.70
2015,09,28,05,29,10.70
2015,09,28,05,30,10.70
2015,09,28,05,31,10.70
2015,09,28,05,32,10.70
2015,09,28,05,33,10.70
2015,09,28,05,34,10.70
2015,09,28,05,35,10.70
2015,09,28,05,36,10.70
2015,09,28,05,37,10.70
2015,09,28,05,38,10.70
2015,09,28,05,39,10.70
2015,09,28,05,40,10.60
2015,09,28,05,41,10.60
2015,09,28,05,42,10.60
2015,09,28,05,43,10.60
2015,09,28,05,44,10.60
2015,09,28,05,45,10.60
2015,09,28,05,46,10.60
2015,09,28,05,47,10.60
2015,09,28,05,48,10.60
2015,09,28,05,49,10.60
2015,09,28,05,50,10.60
2015,09,28,05,51,10.60
2015,09,28,05,52,10.60
2015,09,28,05,53,10.60
2015,09,28,05,54,10.60
2015,09,28,05,55,10.60
2015,09,28,05,56,10.60
2015,09,28,05,57,10.60
2015,09,28,05,58,10.60
2015,09,28,05,59,10.60
2015,09,28,06,00,10.50
2015,09,28,06,01,10.40
2015,09,28,06,02,10.40
2015,09,28,06,03,10.40
2015,09,28,06,04,10.40
2015,09,28,06,05,10.40
2015,09,28,06,06,10.40
2015,09,28,06,07,10.40
2015,09,28,06,08,10.40
2015,09,28,06,09,10.30
2015,09,28,06,10,10.30
2015,09,28,06,11,10.30
2015,09,28,06,12,10.30
2015,09,28,06,13,10.30
2015,09,28,06,14,10.20
2015,09,28,06,15,10.20
2015,09,28,06,16,10.20
2015,09,28,06,17,10.20
2015,09,28,06,18,10.30
2015,09,28,06,19,10.20
2015,09,28,06,20,10.20
2015,09,28,06,21,10.20
2015,09,28,06,22,10.20
2015,09,28,06,23,10.20
2015,09,28,06,24,10.20
2015,09,28,06,25,10.20
2015,09,28,06,26,10.20
2015,09,28,06,27,10.20
2015,09,28,06,28,10.20
2015,09,28,06,29,10.20
2015,09,28,06,30,10.20
2015,09,28,06,31,10.20
2015,09,28,06,32,10.10
2015,09,28,06,33,10.10
2015,09,28,06,34,10.10
2015,09,28,06,35,10.10
2015,09,28,06,36,10.10
2015,09,28,06,37,10.10
2015,09,28,06,38,10.10
2015,09,28,06,39,10.10
2015,09,28,06,40,10.10
2015,09,28,06,41,10.10
2015,09,28,06,42,10.10
2015,09,28,06,43,10.10
2015,09,28,06,44,10.10
2015,09,28,06,45,10.10
2015,09,28,06,46,10.10
2015,09,28,06,47,10.10
2015,09,28,06,48,9.90
2015,09,28,06,49,9.90
2015,09,28,06,50,9.90
2015,09,28,06,51,9.90
2015,09,28,06,52,9.90
2015,09,28,06,53,9.90
2015,09,28,06,54,9.90
2015,09,28,06,55,9.90
2015,09,28,06,56,9.90
2015,09,28,06,57,9.90
2015,09,28,06,58,9.90
2015,09,28,06,59,9.80
2015,09,28,07,00,9.80
2015,09,28,07,01,9.80
2015,09,28,07,02,9.70
2015,09,28,07,03,9.70
2015,09,28,07,04,9.70
2015,09,28,07,05,9.70
2015,09,28,07,06,9.70
2015,09,28,07,07,9.60
2015,09,28,07,08,9.60
2015,09,28,07,09,9.60
2015,09,28,07,10,9.50
2015,09,28,07,11,9.50
2015,09,28,07,12,9.50
2015,09,28,07,13,9.50
2015,09,28,07,14,9.50
2015,09,28,07,15,9.50
2015,09,28,07,16,9.50
2015,09,28,07,17,9.50
2015,09,28,07,18,9.50
2015,09,28,07,19,9.50
2015,09,28,07,20,9.50
2015,09,28,07,21,9.50
2015,09,28,07,22,9.50
2015,09,28,07,23,9.50
2015,09,28,07,24,9.50
2015,09,28,07,25,9.50
2015,09,28,07,26,9.50
2015,09,28,07,27,9.50
2015,09,28,07,28,9.50
2015,09,28,07,29,9.50
2015,09,28,07,30,9.50
2015,09,28,07,31,9.60
2015,09,28,07,32,9.60
2015,09,28,07,33,9.60
2015,09,28,07,34,9.60
2015,09,28,07,35,9.60
2015,09,28,07,36,9.60
2015,09,28,07,37,9.60
2015,09,28,07,38,9.60
2015,09,28,07,39,9.60
2015,09,28,07,40,9.60
2015,09,28,07,41,9.60
2015,09,28,07,42,9.60
2015,09,28,07,43,9.60
2015,09,28,07,44,9.60
2015,09,28,07,45,9.60
2015,09,28,07,46,9.60
2015,09,28,07,47,9.50
2015,09,28,07,48,9.50
2015,09,28,07,49,9.50
2015,09,28,07,50,9.50
2015,09,28,07,51,9.50
2015,09,28,07,52,9.40
2015,09,28,07,53,9.40
2015,09,28,07,54,9.40
2015,09,28,07,55,9.40
2015,09,28,07,56,9.40
2015,09,28,07,57,9.40
2015,09,28,07,58,9.40
2015,09,28,07,59,9.40
2015,09,28,08,00,9.40
2015,09,28,08,01,9.40
2015,09,28,08,02,9.40
2015,09,28,08,03,9.50
2015,09,28,08,04,9.50
2015,09,28,08,05,9.50
2015,09,28,08,06,9.50
2015,09,28,08,07,9.60
2015,09,28,08,08,9.70
2015,09,28,08,09,9.70
2015,09,28,08,10,9.70
2015,09,28,08,11,9.80
2015,09,28,08,12,9.90
2015,09,28,08,13,9.90
2015,09,28,08,14,9.90
2015,09,28,08,15,10.00
2015,09,28,08,16,10.10
2015,09,28,08,17,10.10
2015,09,28,08,18,10.20
2015,09,28,08,19,10.30
2015,09,28,08,20,10.30
2015,09,28,08,21,10.40
2015,09,28,08,22,10.40
2015,09,28,08,23,10.60
2015,09,28,08,24,10.60
2015,09,28,08,25,10.70
2015,09,28,08,26,10.80
2015,09,28,08,27,10.90
2015,09,28,08,28,11.00
2015,09,28,08,29,11.10
2015,09,28,08,30,11.20
2015,09,28,08,31,11.30
2015,09,28,08,32,11.40
2015,09,28,08,33,11.50
2015,09,28,08,34,11.60
2015,09,28,08,35,11.60
2015,09,28,08,36,11.70
2015,09,28,08,37,11.80
2015,09,28,08,38,11.80
2015,09,28,08,39,11.80
2015,09,28,08,40,11.90
2015,09,28,08,41,11.90
2015,09,28,08,42,12.00
2015,09,28,08,43,12.00
2015,09,28,08,44,12.10
2015,09,28,08,45,12.10
2015,09,28,08,46,12.10
2015,09,28,08,47,12.20
2015,09,28,08,48,12.20
2015,09,28,08,49,12.30
2015,09,28,08,50,12.30
2015,09,28,08,51,12.30
2015,09,28,08,52,12.30
2015,09,28,08,53,12.30
2015,09,28,08,54,12.40
2015,09,28,08,55,12.40
2015,09,28,08,56,12.40
2015,09,28,08,57,12.50
2015,09,28,08,58,12.50
2015,09,28,08,59,12.50
2015,09,28,09,00,12.60
2015,09,28,09,01,12.60
2015,09,28,09,02,12.60
2015,09,28,09,03,12.60
2015,09,28,09,04,12.60
2015,09,28,09,05,12.60
2015,09,28,09,06,12.60
2015,09,28,09,07,12.60
2015,09,28,09,08,12.70
2015,09,28,09,09,12.60
2015,09,28,09,10,12.70
2015,09,28,09,11,12.70
2015,09,28,09,12,12.70
2015,09,28,09,13,12.70
2015,09,28,09,14,12.80
2015,09,28,09,15,12.80
2015,09,28,09,16,12.80
2015,09,28,09,17,12.80
2015,09,28,09,18,12.80
2015,09,28,09,19,12.80
2015,09,28,09,20,12.80
2015,09,28,09,21,12.80
2015,09,28,09,22,12.80
2015,09,28,09,23,12.80
2015,09,28,09,24,12.90
2015,09,28,09,25,12.90
2015,09,28,09,26,12.90
2015,09,28,09,27,12.90
2015,09,28,09,28,12.90
2015,09,28,09,29,12.90
2015,09,28,09,30,12.90
2015,09,28,09,31,12.90
2015,09,28,09,32,13.00
2015,09,28,09,33,13.00
2015,09,28,09,34,13.00
2015,09,28,09,35,13.10
2015,09,28,09,36,13.10
2015,09,28,09,37,13.20
2015,09,28,09,38,13.20
2015,09,28,09,39,13.30
2015,09,28,09,40,13.30
2015,09,28,09,41,13.30
2015,09,28,09,42,13.30
2015,09,28,09,43,13.30
2015,09,28,09,44,13.30
2015,09,28,09,45,13.40
2015,09,28,09,46,13.40
2015,09,28,09,47,13.40
2015,09,28,09,48,13.50
2015,09,28,09,49,13.50
2015,09,28,09,50,13.50
2015,09,28,09,51,13.60
2015,09,28,09,52,13.50
2015,09,28,09,53,13.60
2015,09,28,09,54,13.50
2015,09,28,09,55,13.50
2015,09,28,09,56,13.50
2015,09,28,09,57,13.50
2015,09,28,09,58,13.50
2015,09,28,09,59,13.50
2015,09,28,10,00,13.60
2015,09,28,10,01,13.60
2015,09,28,10,02,13.60
2015,09,28,10,03,13.60
2015,09,28,10,04,13.60
2015,09,28,10,05,13.70
2015,09,28,10,06,13.70
2015,09,28,10,07,13.70
2015,09,28,10,08,13.70
2015,09,28,10,09,13.70
2015,09,28,10,10,13.70
2015,09,28,10,11,13.70
2015,09,28,10,12,13.80
2015,09,28,10,13,13.80
2015,09,28,10,14,13.80
2015,09,28,10,15,13.90
2015,09,28,10,16,13.90
2015,09,28,10,17,14.00
2015,09,28,10,18,14.00
2015,09,28,10,19,14.00
2015,09,28,10,20,14.00
2015,09,28,10,21,14.00
2015,09,28,10,22,14.00
2015,09,28,10,23,14.10
2015,09,28,10,24,14.10
2015,09,28,10,25,14.10
2015,09,28,10,26,14.10
2015,09,28,10,27,14.10
2015,09,28,10,28,14.10
2015,09,28,10,29,14.10
2015,09,28,10,30,14.10
2015,09,28,10,31,14.10
2015,09,28,10,32,14.10
2015,09,28,10,33,14.20
2015,09,28,10,34,14.20
2015,09,28,10,35,14.20
2015,09,28,10,36,14.20
2015,09,28,10,37,14.20
2015,09,28,10,38,14.20
2015,09,28,10,39,14.20
2015,09,28,10,40,14.20
2015,09,28,10,41,14.20
2015,09,28,10,42,14.20
2015,09,28,10,43,14.20
2015,09,28,10,44,14.20
2015,09,28,10,45,14.20
2015,09,28,10,46,14.20
2015,09,28,10,47,14.20
2015,09,28,10,48,14.20
2015,09,28,10,49,14.20
2015,09,28,10,50,14.20
2015,09,28,10,51,14.20
2015,09,28,10,52,14.20
2015,09,28,10,53,14.20
2015,09,28,10,54,14.20
2015,09,28,10,55,14.20
2015,09,28,10,56,14.20
2015,09,28,10,57,14.20
2015,09,28,10,58,14.20
2015,09,28,10,59,14.20
2015,09,28,11,00,14.20
2015,09,28,11,01,14.20
2015,09,28,11,02,14.30
2015,09,28,11,03,14.30
2015,09,28,11,04,14.30
2015,09,28,11,05,14.40
2015,09,28,11,06,14.40
2015,09,28,11,07,14.40
2015,09,28,11,08,14.40
2015,09,28,11,09,14.40
2015,09,28,11,10,14.40
2015,09,28,11,11,14.40
2015,09,28,11,12,14.40
2015,09,28,11,13,14.40
2015,09,28,11,14,14.40
2015,09,28,11,15,14.30
2015,09,28,11,16,14.20
2015,09,28,11,17,14.20
2015,09,28,11,18,14.20
2015,09,28,11,19,14.20
2015,09,28,11,20,14.20
2015,09,28,11,21,14.20
2015,09,28,11,22,14.20
2015,09,28,11,23,14.20
2015,09,28,11,24,14.30
2015,09,28,11,25,14.40
2015,09,28,11,26,14.40
2015,09,28,11,27,14.40
2015,09,28,11,28,14.40
2015,09,28,11,29,14.40
2015,09,28,11,30,14.50
2015,09,28,11,31,14.50
2015,09,28,11,32,14.50
2015,09,28,11,33,14.40
2015,09,28,11,34,14.50
2015,09,28,11,35,14.50
2015,09,28,11,36,14.50
2015,09,28,11,37,14.60
2015,09,28,11,38,14.60
2015,09,28,11,39,14.70
2015,09,28,11,40,14.70
2015,09,28,11,41,14.70
2015,09,28,11,42,14.80
2015,09,28,11,43,14.80
2015,09,28,11,44,14.80
2015,09,28,11,45,14.80
2015,09,28,11,46,14.70
2015,09,28,11,47,14.70
2015,09,28,11,48,14.80
2015,09,28,11,49,14.80
2015,09,28,11,50,14.80
2015,09,28,11,51,14.80
2015,09,28,11,52,14.80
2015,09,28,11,53,14.80
2015,09,28,11,54,14.80
2015,09,28,11,55,14.80
2015,09,28,11,56,14.80
2015,09,28,11,57,14.80
2015,09,28,11,58,14.80
2015,09,28,11,59,14.80
2015,09,28,12,00,14.80
2015,09,28,12,01,14.80
2015,09,28,12,02,14.90
2015,09,28,12,03,14.90
2015,09,28,12,04,14.90
2015,09,28,12,05,14.90
2015,09,28,12,06,14.90
2015,09,28,12,07,14.90
2015,09,28,12,08,14.80
2015,09,28,12,09,14.90
2015,09,28,12,10,14.90
2015,09,28,12,11,14.90
2015,09,28,12,12,14.90
2015,09,28,12,13,14.90
2015,09,28,12,14,14.80
2015,09,28,12,15,14.80
2015,09,28,12,16,14.80
2015,09,28,12,17,14.70
2015,09,28,12,18,14.70
2015,09,28,12,19,14.70
2015,09,28,12,20,14.70
2015,09,28,12,21,14.70
2015,09,28,12,22,14.80
2015,09,28,12,23,14.80
2015,09,28,12,24,14.80
2015,09,28,12,25,14.80
2015,09,28,12,26,14.80
2015,09,28,12,27,14.80
2015,09,28,12,28,14.80
2015,09,28,12,29,14.90
2015,09,28,12,30,14.90
2015,09,28,12,31,14.80
2015,09,28,12,32,14.80
2015,09,28,12,33,14.80
2015,09,28,12,34,14.80
2015,09,28,12,35,14.80
2015,09,28,12,36,14.80
2015,09,28,12,37,14.80
2015,09,28,12,38,14.80
2015,09,28,12,39,14.80
2015,09,28,12,40,14.90
2015,09,28,12,41,14.90
2015,09,28,12,42,15.00
2015,09,28,12,43,15.00
2015,09,28,12,44,15.00
2015,09,28,12,45,15.00
2015,09,28,12,46,15.00
2015,09,28,12,47,15.00
2015,09,28,12,48,15.00
2015,09,28,12,49,15.00
2015,09,28,12,50,15.00
2015,09,28,12,51,14.90
2015,09,28,12,52,14.90
2015,09,28,12,53,14.90
2015,09,28,12,54,15.00
2015,09,28,12,55,15.00
2015,09,28,12,56,15.00
2015,09,28,12,57,15.00
2015,09,28,12,58,15.00
2015,09,28,12,59,15.00
2015,09,28,13,00,15.10
2015,09,28,13,01,15.10
2015,09,28,13,02,15.20
2015,09,28,13,03,15.20
2015,09,28,13,04,15.20
2015,09,28,13,05,15.20
2015,09,28,13,06,15.20
2015,09,28,13,07,15.20
2015,09,28,13,08,15.20
2015,09,28,13,09,15.20
2015,09,28,13,10,15.20
2015,09,28,13,11,15.20
2015,09,28,13,12,15.10
2015,09,28,13,13,15.10
2015,09,28,13,14,15.10
2015,09,28,13,15,15.10
2015,09,28,13,16,15.10
2015,09,28,13,17,15.10
2015,09,28,13,18,15.10
2015,09,28,13,19,15.10
2015,09,28,13,20,15.10
2015,09,28,13,21,15.10
2015,09,28,13,22,15.10
2015,09,28,13,23,15.10
2015,09,28,13,24,15.10
2015,09,28,13,25,15.20
2015,09,28,13,26,15.20
2015,09,28,13,27,15.20
2015,09,28,13,28,15.20
2015,09,28,13,29,15.20
2015,09,28,13,30,15.20
2015,09,28,13,31,15.10
2015,09,28,13,32,15.10
2015,09,28,13,33,15.20
2015,09,28,13,34,15.20
2015,09,28,13,35,15.20
2015,09,28,13,36,15.20
2015,09,28,13,37,15.20
2015,09,28,13,38,15.20
2015,09,28,13,39,15.20
2015,09,28,13,40,15.20
2015,09,28,13,41,15.20
2015,09,28,13,42,15.20
2015,09,28,13,43,15.10
2015,09,28,13,44,15.10
2015,09,28,13,45,15.00
2015,09,28,13,46,15.00
2015,09,28,13,47,14.90
2015,09,28,13,48,14.90
2015,09,28,13,49,14.90
2015,09,28,13,50,14.90
2015,09,28,13,51,14.90
2015,09,28,13,52,15.00
2015,09,28,13,53,15.00
2015,09,28,13,54,15.10
2015,09,28,13,55,15.10
2015,09,28,13,56,15.20
2015,09,28,13,57,15.30
2015,09,28,13,58,15.30
2015,09,28,13,59,15.30
2015,09,28,14,00,15.40
2015,09,28,14,01,15.40
2015,09,28,14,02,15.40
2015,09,28,14,03,15.40
2015,09,28,14,04,15.40
2015,09,28,14,05,15.40
2015,09,28,14,06,15.50
2015,09,28,14,07,15.50
2015,09,28,14,08,15.50
2015,09,28,14,09,15.50
2015,09,28,14,10,15.60
2015,09,28,14,11,15.60
2015,09,28,14,12,15.60
2015,09,28,14,13,15.70
2015,09,28,14,14,15.70
2015,09,28,14,15,15.70
2015,09,28,14,16,15.70
2015,09,28,14,17,15.70
2015,09,28,14,18,15.70
2015,09,28,14,19,15.70
2015,09,28,14,20,15.70
2015,09,28,14,21,15.70
2015,09,28,14,22,15.70
2015,09,28,14,23,15.70
2015,09,28,14,24,15.80
2015,09,28,14,25,15.80
2015,09,28,14,26,15.80
2015,09,28,14,27,15.80
2015,09,28,14,28,15.70
2015,09,28,14,29,15.60
2015,09,28,14,30,15.60
2015,09,28,14,31,15.50
2015,09,28,14,32,15.50
2015,09,28,14,33,15.40
2015,09,28,14,34,15.30
2015,09,28,14,35,15.30
2015,09,28,14,36,15.30
2015,09,28,14,37,15.30
2015,09,28,14,38,15.30
2015,09,28,14,39,15.30
2015,09,28,14,40,15.30
2015,09,28,14,41,15.30
2015,09,28,14,42,15.30
2015,09,28,14,43,15.30
2015,09,28,14,44,15.30
2015,09,28,14,45,15.30
2015,09,28,14,46,15.30
2015,09,28,14,47,15.40
2015,09,28,14,48,15.40
2015,09,28,14,49,15.40
2015,09,28,14,50,15.40
2015,09,28,14,51,15.40
2015,09,28,14,52,15.40
2015,09,28,14,53,15.40
2015,09,28,14,54,15.40
2015,09,28,14,55,15.40
2015,09,28,14,56,15.40
2015,09,28,14,57,15.30
2015,09,28,14,58,15.30
2015,09,28,14,59,15.30
2015,09,28,15,00,15.30
2015,09,28,15,01,15.30
2015,09,28,15,02,15.30
2015,09,28,15,03,15.30
2015,09,28,15,04,15.30
2015,09,28,15,05,15.30
2015,09,28,15,06,15.30
2015,09,28,15,07,15.30
2015,09,28,15,08,15.30
2015,09,28,15,09,15.40
2015,09,28,15,10,15.40
2015,09,28,15,11,15.40
2015,09,28,15,12,15.50
2015,09,28,15,13,15.50
2015,09,28,15,14,15.50
2015,09,28,15,15,15.50
2015,09,28,15,16,15.50
2015,09,28,15,17,15.60
2015,09,28,15,18,15.60
2015,09,28,15,19,15.60
2015,09,28,15,20,15.50
2015,09,28,15,21,15.50
2015,09,28,15,22,15.40
2015,09,28,15,23,15.40
2015,09,28,15,24,15.50
2015,09,28,15,25,15.50
2015,09,28,15,26,15.50
2015,09,28,15,27,15.50
2015,09,28,15,28,15.60
2015,09,28,15,29,15.60
2015,09,28,15,30,15.70
2015,09,28,15,31,15.70
2015,09,28,15,32,15.70
2015,09,28,15,33,15.70
2015,09,28,15,34,15.70
2015,09,28,15,35,15.70
2015,09,28,15,36,15.80
2015,09,28,15,37,15.70
2015,09,28,15,38,15.70
2015,09,28,15,39,15.70
2015,09,28,15,40,15.70
2015,09,28,15,41,15.80
2015,09,28,15,42,15.80
2015,09,28,15,43,15.80
2015,09,28,15,44,15.80
2015,09,28,15,45,15.80
2015,09,28,15,46,15.80
2015,09,28,15,47,15.70
2015,09,28,15,48,15.70
2015,09,28,15,49,15.70
2015,09,28,15,50,15.70
2015,09,28,15,51,15.70
2015,09,28,15,52,15.80
2015,09,28,15,53,15.80
2015,09,28,15,54,15.80
2015,09,28,15,55,15.80
2015,09,28,15,56,15.80
2015,09,28,15,57,15.80
2015,09,28,15,58,15.80
2015,09,28,15,59,15.80
2015,09,28,16,00,15.80
2015,09,28,16,01,15.80
2015,09,28,16,02,15.70
2015,09,28,16,03,15.70
2015,09,28,16,04,15.70
2015,09,28,16,05,15.70
2015,09,28,16,06,15.70
2015,09,28,16,07,15.70
2015,09,28,16,08,15.60
2015,09,28,16,09,15.60
2015,09,28,16,10,15.60
2015,09,28,16,11,15.60
2015,09,28,16,12,15.60
2015,09,28,16,13,15.60
2015,09,28,16,14,15.60
2015,09,28,16,15,15.60
2015,09,28,16,16,15.70
2015,09,28,16,17,15.70
2015,09,28,16,18,15.70
2015,09,28,16,19,15.80
2015,09,28,16,20,15.80
2015,09,28,16,21,15.80
2015,09,28,16,22,15.80
2015,09,28,16,23,15.80
2015,09,28,16,24,15.70
2015,09,28,16,25,15.70
2015,09,28,16,26,15.70
2015,09,28,16,27,15.60
2015,09,28,16,28,15.60
2015,09,28,16,29,15.60
2015,09,28,16,30,15.60
2015,09,28,16,31,15.60
2015,09,28,16,32,15.60
2015,09,28,16,33,15.60
2015,09,28,16,34,15.60
2015,09,28,16,35,15.60
2015,09,28,16,36,15.70
2015,09,28,16,37,15.70
2015,09,28,16,38,15.70
2015,09,28,16,39,15.70
2015,09,28,16,40,15.70
2015,09,28,16,41,15.60
2015,09,28,16,42,15.60
2015,09,28,16,43,15.60
2015,09,28,16,44,15.50
2015,09,28,16,45,15.50
2015,09,28,16,46,15.50
2015,09,28,16,47,15.50
2015,09,28,16,48,15.50
2015,09,28,16,49,15.50
2015,09,28,16,50,15.50
2015,09,28,16,51,15.50
2015,09,28,16,52,15.50
2015,09,28,16,53,15.50
2015,09,28,16,54,15.50
2015,09,28,16,55,15.50
2015,09,28,16,56,15.50
2015,09,28,16,57,15.50
2015,09,28,16,58,15.50
2015,09,28,16,59,15.50
2015,09,28,17,00,15.50
2015,09,28,17,01,15.50
2015,09,28,17,02,15.50
2015,09,28,17,03,15.50
2015,09,28,17,04,15.50
2015,09,28,17,05,15.50
2015,09,28,17,06,15.40
2015,09,28,17,07,15.40
2015,09,28,17,08,15.40
2015,09,28,17,09,15.40
2015,09,28,17,10,15.30
2015,09,28,17,11,15.30
2015,09,28,17,12,15.30
2015,09,28,17,13,15.30
2015,09,28,17,14,15.30
2015,09,28,17,15,15.40
2015,09,28,17,16,15.40
2015,09,28,17,17,15.40
2015,09,28,17,18,15.40
2015,09,28,17,19,15.40
2015,09,28,17,20,15.40
2015,09,28,17,21,15.40
2015,09,28,17,22,15.40
2015,09,28,17,23,15.40
2015,09,28,17,24,15.40
2015,09,28,17,25,15.40
2015,09,28,17,26,15.40
2015,09,28,17,27,15.40
2015,09,28,17,28,15.40
2015,09,28,17,29,15.50